User: anonymous   Login
Location: Irma
(52.9170°N, 111.2330°W)
Time: 19:02:57
(UTC-06:00)
Language:

Cosmos 1633 Rocket - Orbit

View from above orbital plane
View from above orbital plane
View from above satellite
View from above satellite

Ground track
Ground track

The orbit data is extracted from the following two-line orbital elements,

1 15593U 85020B   14297.84629986  .00000820  00000-0  96151-4 0  8000
2 15593 082.5374 086.7135 0011286 358.0900 113.5862 14.83788700601040
Epoch (UTC): 24 October 2014 20:18:40
Eccentricity: 0.0011286
inclination: 82.5374°
perigee height: 609 km
apogee height: 625 km
right ascension of ascending node: 86.7135°
argument of perigee: 358.0900°
revolutions per day: 14.83788700
mean anomaly at epoch: 113.5862°
orbit number at epoch: 60104

The dashed part of the orbit path shows where the satellite is in the earth's shadow,  

DLR